Location: Brachbach
(49.1847°N, 9.7240°E)
Time: 12:50:07
(UTC+00:00)

Nimbus 7 Rocket - Pass Details

Date: 16 August 2024
Orbit: 921 x 965 km, 99.4° (Epoch: 14 September)

Event Time Altitude Azimuth Distance (km) Brightness Sun altitude
Rises 01:27:46 0° 9° (N) 3,591 8.6 -21.6°
Reaches altitude 10° 01:30:25 10° 1° (N) 2,639 7.6 -21.4°
Maximum altitude 01:35:34 33° 300° (WNW) 1,510 5.4 -20.9°
Enters shadow 01:37:44 25° 262° (W) 1,760 5.5 -20.7°
